Regional Weather Roundup
Issued by NWS Cleveland, OH

Home | Current Version | Previous Version | Graphics & Text | Print | Product List | Glossary On
Versions: 1 2 3 4 5 6 7 8 9 10 11 12 13 14 15 16 17 18 19 20 21 22 23 24 25 26 27 28 29 30 31 32 33 34 35 36 37 38 39 40 41 42 43 44 45 46 47 48 49 50
000
ASUS41 KCLE 202100
RWRCLE
OHIO REGIONAL WEATHER ROUNDUP
NATIONAL WEATHER SERVICE WILMINGTON, OH
400 PM EST SAT DEC 20 2014

NOTE: "FAIR" INDICATES FEW OR NO CLOUDS BELOW 12,000 FEET WITH NO
SIGNIFICANT WEATHER AND/OR OBSTRUCTIONS TO VISIBILITY.

OHZ001>008-015>018-024>027-034-035-043-044-202200-
   NORTHWEST OHIO

CITY           SKY/WX    TMP DP  RH WIND       PRES   REMARKS
DEFIANCE       CLOUDY    32  22  66 CALM      30.26R
FINDLAY        CLOUDY    32  23  69 S5        30.24S WCI  27
TOLEDO EXPRESS CLOUDY    30  22  72 CALM      30.26R
TOLEDO METCALF CLOUDY    32  21  64 S5        30.27R WCI  27
LIMA           CLOUDY    33  23  66 SW3       30.24S
$$

OHZ009>014-019>023-028>033-038-089-202200-
   NORTHEAST OHIO

CITY           SKY/WX    TMP DP  RH WIND       PRES   REMARKS
CLE-HOPKINS    CLOUDY    31  20  63 CALM      30.28R
CLE-LAKEFRONT  CLOUDY    32  22  66 W3        30.26S
CUY CO. ARPT   NOT AVBL
LORAIN-ELYRIA  CLOUDY    30  20  66 NW3       30.26S
ASHTABULA      CLOUDY    30  21  69 CALM      30.25S
AKRON-CANTON   CLOUDY    30  19  63 NE5       30.22S WCI  25
WOOSTER        NOT AVBL
MANSFIELD      CLOUDY    29  22  75 CALM      30.23R
YOUNGSTOWN     CLOUDY    29  20  69 CALM      30.23R
$$

OHZ042-051>053-060>062-070>072-077>081-202200-
  SOUTHWEST OHIO

CITY           SKY/WX    TMP DP  RH WIND       PRES   REMARKS
CINC-COVINGTON CLOUDY    32  24  72 N3        30.24S
CINC-LUNKEN    CLOUDY    33  25  72 NE3       30.28S
HAMILTON       CLOUDY    33  26  75 N3        30.27S
DAYTON         NOT AVBL
WRIGHT-PAT AFB NOT AVBL
DAYTON GENERAL CLOUDY    31  24  75 NE3       30.24R
WILMINGTON     CLOUDY    30  22  72 NE3       30.24R
$$

OHZ036-037-039>041-045>050-054>059-063>069-073>076-082>088-202200-
  CENTRAL AND SOUTHEAST OHIO

CITY           SKY/WX    TMP DP  RH WIND       PRES   REMARKS
COLUMBUS       CLOUDY    31  23  72 CALM      30.25R
OSU AIRPORT    CLOUDY    30  23  75 NW6       30.25R WCI  24
BOLTON FIELD   NOT AVBL
RICKENBACK AFB NOT AVBL
NEWARK         CLOUDY    32  23  69 CALM      30.24R
MARION         CLOUDY    29  24  82 S3        30.25R HAZE
LANCASTER      CLOUDY    35  24  64 CALM      30.25R
ZANESVILLE     CLOUDY    31  21  66 CALM      30.24S
NEW PHILLY     CLOUDY    32  20  61 N5        30.25R WCI  27
$$


USA.gov is the U.S. government's official web portal to all federal, state and local government web resources and services.